Temp
20 20 20 20 20 20 19 19 18 17 16 16 17 17 16 16 16 16 16 16 16 16 16 15 15 15 15 14 14 13 13 13 13 13 12 12 12 12 13 14 14 14
20 20 20 20 20 20 19 19 18 17 16 16 16 16 16 16 16 16 16 16 16 16 15 15 15 15 14 14 14 13 13 13 13 13 12 11 12 12 12 13 13 13
20 20 20 20 20 20 19 18 17 17 16 16 16 16 16 15 16 16 16 16 16 15 15 15 15 14 14 14 14 13 13 13 13 13 12 11 12 12 12 12 12 12
19 19 19 20 20 19 18 18 17 17 17 17 17 16 16 16 16 16 16 16 15 15 15 15 15 14 13 13 13 13 12 13 13 13 12 11 12 12 12 12 12 12
19 19 19 19 19 19 19 18 18 17 17 17 17 16 16 16 16 16 16 16 16 16 15 15 15 14 14 13 12 12 12 12 12 13 12 12 12 12 13 12 12 12
18 18 19 19 19 19 19 18 18 17 17 17 16 16 16 16 16 16 16 16 16 16 15 15 15 14 14 13 12 12 12 12 12 13 13 12 12 12 13 13 13 12
18 18 18 18 18 18 18 18 18 17 17 16 16 16 15 15 15 15 16 16 16 16 15 15 15 14 14 14 12 12 12 12 12 13 13 12 12 12 12 12 13 12
18 18 18 18 18 18 18 18 18 17 17 16 16 16 15 15 15 15 15 15 15 15 15 15 15 15 14 14 13 12 12 12 12 13 12 12 12 12 12 12 12 12
18 18 18 18 18 18 18 18 17 17 17 16 16 16 16 15 15 15 15 15 15 15 15 15 15 15 14 13 13 12 12 12 12 12 12 12 12 12 12 12 12 12
18 18 18 18 18 17 17 17 17 17 16 16 16 16 16 16 16 16 16 16 16 16 16 16 15 15 15 14 13 13 12 12 12 12 12 12 12 12 12 12 12 12
18 18 18 18 17 17 17 16 16 16 16 16 17 17 17 17 17 17 17 17 17 17 16 16 16 16 15 15 14 14 13 13 12 12 12 12 12 12 12 12 12 12
17 17 17 17 17 17 16 16 16 16 17 17 17 17 17 17 17 17 17 17 17 17 16 17 17 16 16 15 15 15 14 13 12 12 12 12 12 12 12 12 11 11
17 17 17 17 17 17 16 16 16 16 17 17 17 17 17 17 17 17 17 17 17 17 17 16 16 16 15 15 15 15 14 13 12 12 11 11 11 12 12 11 11 11
17 17 18 17 17 17 16 16 17 17 17 17 17 17 17 17 18 17 17 17 17 17 17 17 16 16 15 15 15 15 15 14 13 12 11 11 11 11 11 10 10 10
17 17 18 18 17 17 17 17 17 17 17 18 18 18 17 17 17 17 17 18 18 18 18 17 17 17 16 16 15 15 15 14 13 12 11 11 11 10 10 10 10 10
17 17 17 17 17 17 17 17 17 17 17 17 17 17 17 17 17 17 17 18 18 18 18 18 17 17 17 17 16 15 15 14 13 12 11 11 10 10 10 10 10 9
16 16 16 16 16 16 16 16 16 17 17 17 17 17 17 17 17 17 17 18 18 18 18 18 18 18 17 16 16 15 14 13 12 12 11 10 9 9 9 9 9 9
15 15 15 15 15 15 15 15 16 16 16 17 17 17 17 17 17 17 17 17 17 18 18 18 18 17 17 16 16 15 14 13 11 10 9 9 9 9 9 9 9 9
14 14 15 15 15 15 15 15 15 15 16 16 16 16 16 17 17 17 17 17 17 17 18 18 17 17 16 16 15 15 13 12 11 10 9 8 8 8 8 8 8 8
14 14 14 14 14 14 14 14 14 15 15 15 15 16 16 16 16 16 16 16 16 17 17 17 17 17 16 16 15 14 13 12 11 10 8 8 8 8 8 8 8 8
14 14 14 14 14 14 14 14 14 14 14 15 15 15 15 16 16 15 16 16 16 16 17 17 17 17 16 16 15 15 14 13 12 11 9 8 8 7 8 8 8 8
13 13 14 14 14 14 14 14 14 14 15 15 15 15 15 15 15 15 15 15 16 16 16 17 17 17 16 16 16 15 14 13 13 12 11 11 10 9 8 8 8 8
13 13 13 13 14 14 14 14 14 14 14 15 15 15 16 16 16 16 15 15 15 15 16 16 17 17 16 16 16 15 15 14 14 13 13 13 12 12 11 10 9 8
12 12 12 13 13 13 13 13 14 14 14 14 14 15 15 16 16 16 16 16 15 15 15 16 16 16 16 16 16 16 15 15 14 14 14 14 14 13 13 12 11 9
12 12 12 12 12 13 13 13 13 13 14 14 14 14 15 15 15 16 16 16 16 15 15 15 16 16 16 16 16 15 15 15 14 14 14 14 14 14 14 13 11 9
11 11 11 12 12 12 12 13 13 13 13 13 14 14 14 15 15 15 16 16 16 16 16 15 15 15 15 16 16 15 15 15 14 14 14 14 14 14 14 13 11 10
Height
1474 1476 1476 1477 1477 1478 1478 1478 1478 1478 1478 1479 1480 1481 1481 1482 1484 1485 1485 1487 1488 1489 1490 1490 1491 1492 1492 1493 1493 1493 1493 1494 1494 1494 1494 1494 1494 1495 1495 1496 1497 1498
1471 1472 1473 1473 1473 1474 1474 1474 1474 1474 1475 1475 1476 1477 1478 1479 1480 1481 1482 1483 1484 1485 1486 1486 1487 1487 1488 1488 1489 1489 1489 1489 1489 1490 1490 1489 1490 1490 1490 1491 1492 1492
1468 1468 1469 1470 1470 1470 1470 1470 1471 1471 1471 1472 1473 1474 1474 1475 1476 1476 1478 1479 1480 1481 1482 1482 1482 1483 1483 1484 1484 1484 1484 1484 1485 1486 1485 1485 1485 1486 1486 1487 1487 1487
1464 1465 1465 1466 1466 1467 1467 1467 1467 1467 1468 1469 1470 1471 1471 1472 1473 1473 1474 1475 1476 1476 1477 1478 1478 1479 1479 1479 1479 1479 1479 1480 1480 1481 1481 1480 1481 1481 1482 1482 1482 1482
1461 1462 1462 1463 1463 1463 1464 1464 1464 1464 1465 1466 1467 1468 1468 1469 1469 1470 1471 1471 1472 1473 1473 1474 1474 1475 1475 1476 1475 1474 1475 1475 1476 1477 1476 1475 1476 1476 1477 1477 1477 1477
1458 1459 1459 1460 1460 1460 1461 1461 1461 1462 1462 1463 1464 1465 1465 1466 1466 1466 1467 1467 1468 1469 1469 1470 1470 1471 1471 1471 1471 1470 1470 1471 1471 1472 1472 1471 1471 1471 1472 1472 1472 1472
1454 1455 1456 1457 1457 1458 1458 1459 1459 1459 1460 1460 1461 1462 1462 1462 1463 1463 1464 1464 1464 1465 1465 1466 1466 1466 1466 1466 1466 1465 1465 1466 1466 1467 1467 1466 1467 1466 1466 1467 1467 1467
1451 1452 1453 1454 1455 1455 1456 1456 1456 1456 1457 1457 1458 1459 1459 1459 1460 1460 1461 1461 1461 1461 1461 1462 1462 1462 1462 1462 1461 1460 1460 1461 1461 1462 1462 1462 1462 1461 1462 1462 1462 1463
1449 1450 1451 1452 1452 1453 1453 1454 1454 1454 1455 1455 1456 1456 1456 1456 1456 1457 1457 1457 1456 1457 1457 1457 1457 1457 1458 1457 1456 1456 1456 1456 1456 1456 1457 1457 1456 1456 1457 1458 1458 1458
1447 1448 1449 1450 1450 1451 1451 1452 1452 1452 1453 1453 1453 1453 1453 1453 1453 1453 1453 1453 1452 1452 1452 1453 1453 1453 1453 1453 1452 1452 1451 1451 1451 1451 1451 1451 1451 1451 1452 1453 1454 1454
1446 1446 1447 1448 1448 1449 1449 1450 1450 1450 1451 1451 1451 1451 1451 1451 1451 1450 1450 1449 1449 1449 1449 1449 1449 1449 1449 1448 1448 1448 1447 1446 1446 1446 1446 1446 1446 1447 1448 1448 1449 1449
1443 1444 1445 1445 1446 1447 1447 1447 1448 1448 1448 1448 1448 1448 1448 1448 1447 1447 1446 1446 1445 1445 1445 1444 1444 1444 1444 1444 1444 1444 1443 1442 1442 1441 1441 1441 1442 1442 1443 1443 1444 1444
1442 1442 1442 1443 1444 1444 1445 1445 1445 1445 1445 1445 1445 1445 1445 1445 1444 1443 1443 1442 1441 1440 1440 1440 1439 1439 1438 1438 1438 1438 1438 1438 1437 1437 1437 1437 1437 1437 1438 1439 1439 1439
1440 1440 1440 1441 1441 1442 1442 1442 1442 1442 1442 1442 1442 1441 1441 1441 1440 1439 1438 1437 1437 1436 1435 1435 1434 1433 1433 1433 1433 1433 1433 1433 1432 1432 1432 1432 1432 1432 1433 1433 1434 1434
1438 1438 1438 1438 1439 1439 1439 1439 1438 1438 1438 1438 1438 1437 1437 1437 1436 1435 1433 1433 1432 1431 1431 1430 1428 1428 1427 1428 1428 1428 1428 1427 1427 1427 1427 1427 1427 1427 1427 1428 1428 1429
1435 1435 1435 1435 1435 1435 1435 1435 1434 1434 1434 1433 1433 1433 1433 1432 1431 1430 1429 1428 1427 1426 1425 1424 1423 1422 1422 1422 1423 1423 1423 1423 1422 1422 1422 1422 1422 1422 1422 1422 1422 1423
1432 1432 1432 1432 1432 1431 1431 1431 1430 1430 1430 1429 1429 1429 1429 1428 1427 1426 1425 1424 1423 1421 1420 1419 1418 1418 1417 1417 1417 1418 1418 1418 1417 1417 1417 1417 1417 1417 1416 1417 1417 1418
1429 1428 1428 1428 1428 1428 1428 1428 1427 1427 1427 1426 1426 1425 1425 1423 1422 1421 1420 1419 1418 1416 1415 1414 1413 1413 1413 1413 1413 1413 1413 1413 1413 1413 1412 1412 1412 1412 1412 1412 1413 1413
1426 1425 1425 1425 1425 1425 1425 1424 1424 1423 1423 1422 1421 1420 1419 1418 1417 1416 1415 1414 1413 1411 1410 1409 1408 1409 1409 1408 1408 1408 1408 1409 1408 1408 1408 1408 1408 1408 1408 1408 1408 1409
1424 1423 1423 1423 1423 1422 1421 1421 1420 1420 1419 1418 1417 1416 1415 1413 1412 1411 1410 1409 1408 1407 1406 1404 1404 1405 1405 1404 1404 1403 1404 1404 1403 1403 1403 1403 1403 1403 1403 1404 1404 1405
1422 1422 1421 1421 1421 1420 1419 1419 1418 1417 1416 1415 1414 1412 1411 1410 1408 1407 1406 1405 1404 1403 1402 1400 1400 1401 1401 1400 1400 1400 1400 1399 1399 1398 1398 1398 1398 1398 1399 1399 1400 1400
1419 1419 1419 1418 1418 1418 1417 1416 1415 1414 1413 1412 1410 1409 1407 1406 1405 1403 1402 1401 1400 1399 1397 1396 1396 1397 1397 1396 1396 1396 1396 1395 1394 1393 1393 1392 1392 1392 1393 1393 1394 1395
1415 1415 1415 1415 1414 1414 1413 1413 1412 1411 1410 1408 1406 1405 1403 1402 1401 1399 1398 1397 1395 1395 1393 1392 1392 1393 1393 1392 1392 1392 1391 1390 1389 1388 1387 1386 1386 1387 1387 1387 1388 1389
1413 1412 1411 1411 1410 1410 1409 1408 1407 1407 1406 1404 1403 1401 1400 1399 1397 1395 1393 1392 1391 1390 1390 1388 1388 1389 1390 1389 1388 1387 1387 1386 1385 1384 1382 1382 1382 1382 1382 1382 1382 1383
1410 1409 1408 1407 1406 1405 1404 1403 1402 1402 1401 1400 1398 1397 1396 1395 1394 1392 1390 1388 1387 1385 1385 1384 1383 1384 1385 1385 1384 1383 1383 1382 1381 1379 1378 1378 1378 1378 1378 1377 1377 1378
1408 1406 1405 1404 1402 1401 1400 1399 1398 1397 1396 1395 1393 1392 1391 1390 1389 1388 1386 1384 1383 1381 1380 1379 1378 1378 1379 1379 1379 1379 1378 1378 1376 1374 1373 1374 1374 1374 1373 1373 1373 1374
Wind_Speed
29 29 29 30 31 32 34 37 39 40 41 42 41 41 41 40 39 38 38 36 34 34 34 35 36 34 32 31 31 32 33 33 34 34 33 32 34 36 37 39 42 44
25 24 25 27 28 29 31 34 36 37 38 39 39 39 39 39 38 38 37 35 33 33 33 33 34 34 34 33 32 31 32 33 33 33 33 33 34 35 36 38 40 41
23 22 23 24 26 28 30 32 33 33 34 35 36 36 36 36 37 36 35 34 33 33 32 33 33 34 34 35 34 32 32 33 33 33 34 35 35 36 36 37 38 39
22 22 23 23 25 26 27 29 30 30 31 32 32 33 34 34 35 35 34 33 33 33 32 33 33 33 34 35 35 34 33 33 33 33 34 35 36 38 38 37 38 39
24 23 24 25 24 24 24 26 27 28 29 29 29 30 31 32 33 33 33 32 33 33 33 33 33 33 33 34 36 36 34 34 34 34 35 36 37 38 39 39 40 39
29 27 26 25 24 23 24 25 26 26 27 27 27 29 29 30 31 32 32 32 32 32 32 33 33 33 33 34 36 37 36 36 36 35 36 37 38 39 39 40 41 41
31 29 26 24 23 23 23 23 23 24 25 25 26 27 28 30 30 30 31 31 32 32 32 32 32 33 34 34 35 38 37 37 37 37 38 39 39 40 40 41 42 42
24 24 23 23 22 21 20 19 19 20 22 23 24 24 26 28 29 29 30 31 31 32 32 32 32 33 34 34 36 38 38 38 39 39 39 39 40 41 41 41 42 42
17 19 20 19 18 16 15 15 15 17 18 19 20 22 24 26 26 27 29 30 31 32 32 32 33 34 34 35 37 38 39 40 40 40 40 41 41 42 42 41 41 42
14 15 14 12 10 8 7 8 10 11 13 15 17 19 21 24 25 26 27 29 30 32 32 32 34 35 35 36 37 38 40 41 41 42 42 42 42 43 43 42 42 42
11 11 9 6 4 3 4 5 8 10 12 14 16 17 19 21 23 25 26 28 29 30 32 32 33 34 36 36 37 38 40 41 42 42 43 43 43 43 43 42 42 43
9 9 8 7 6 5 5 6 9 11 14 17 18 20 20 21 22 24 25 27 28 29 31 32 33 34 36 37 38 38 40 41 41 42 43 43 43 43 43 42 42 43
9 9 9 10 10 9 8 9 11 14 17 20 21 23 23 24 24 25 26 27 28 29 30 31 33 34 36 37 38 38 39 40 41 42 43 43 43 43 42 42 42 43
11 12 12 13 14 13 13 15 17 19 22 24 25 26 26 27 27 28 28 28 28 29 30 31 33 35 37 38 38 39 40 41 41 42 42 43 43 43 42 42 42 43
14 15 16 17 18 17 18 20 23 25 27 29 30 30 30 30 30 31 31 30 30 29 30 31 33 35 36 37 39 39 40 41 41 42 43 43 43 43 43 43 42 43
18 19 20 21 21 22 22 24 26 28 30 32 33 34 33 32 32 33 33 33 32 31 30 31 33 35 36 37 38 39 40 40 41 42 42 42 42 42 42 43 42 42
19 21 22 23 23 24 25 26 28 30 32 34 35 35 34 34 35 36 35 35 34 34 33 32 33 34 35 36 37 38 38 39 40 41 41 41 41 41 42 42 41 41
20 22 23 23 24 25 26 28 29 31 34 35 36 35 35 36 37 38 38 37 37 36 35 33 32 32 33 35 36 36 37 38 39 40 40 41 41 41 41 41 41 40
21 22 23 24 24 25 27 28 29 31 32 34 35 36 36 38 39 39 39 39 38 38 36 33 31 31 31 32 33 34 35 36 37 38 39 41 41 42 42 42 41 40
22 22 23 23 23 25 26 27 27 28 29 31 33 35 37 39 39 40 40 39 38 38 36 34 32 30 29 29 31 32 32 33 35 37 38 40 41 42 43 43 42 42
20 20 21 21 21 22 23 23 23 24 26 28 31 34 36 38 39 40 40 39 38 38 37 36 33 29 28 28 29 29 30 31 33 34 37 39 40 41 43 43 43 42
16 17 18 19 20 21 22 22 23 23 24 25 28 31 34 36 38 39 39 39 38 38 38 38 34 29 27 28 28 28 29 30 31 33 35 37 39 41 42 43 43 42
15 17 18 19 20 22 23 24 25 25 26 26 28 30 32 34 36 38 38 39 39 38 38 38 36 32 29 28 28 28 29 30 31 33 34 36 38 39 40 41 42 43
16 18 19 19 21 22 23 24 25 26 27 27 29 30 31 32 35 37 39 39 39 39 38 39 38 35 32 31 30 30 30 31 32 34 35 36 36 36 38 39 41 42
16 18 19 20 21 22 23 24 24 25 26 28 29 30 31 32 34 37 39 40 40 40 39 40 40 38 35 34 34 33 32 32 34 36 37 37 36 35 36 38 40 41
17 19 20 21 22 23 24 24 25 25 26 27 29 30 31 32 33 35 37 39 41 43 43 42 43 41 38 37 37 37 36 34 36 38 39 37 36 36 37 38 39 40
Wind_Direction
248 251 256 260 264 266 266 267 265 263 262 263 263 264 265 264 263 263 263 263 263 263 262 261 262 264 264 261 258 255 253 251 251 252 252 250 251 251 251 250 250 251
247 253 260 264 267 268 268 268 267 264 262 262 264 264 265 264 263 263 264 264 264 263 264 263 263 265 266 265 262 257 255 253 252 251 248 247 249 249 250 250 250 250
250 259 266 269 270 271 271 270 268 265 262 262 264 264 263 263 263 264 264 265 266 265 264 264 264 264 264 266 265 260 256 255 255 253 250 247 248 248 249 249 249 249
256 266 273 275 273 273 273 271 268 264 263 263 265 265 264 264 264 265 265 266 266 266 265 264 264 264 263 264 264 262 259 257 256 255 252 249 250 250 250 250 249 249
258 267 273 273 272 274 274 272 268 264 264 265 266 266 265 264 265 266 266 266 265 264 264 264 263 263 262 262 262 261 259 258 257 256 254 252 252 253 252 251 250 250
257 262 267 267 270 275 276 274 270 266 265 266 267 267 266 266 265 265 265 265 264 263 263 264 264 263 263 261 260 260 259 257 257 257 256 255 254 254 254 253 252 251
255 257 261 265 271 275 275 275 274 271 269 269 269 270 270 271 271 270 270 269 268 267 266 265 264 263 263 261 260 259 259 258 258 258 257 256 256 255 254 254 255 254
252 254 260 267 272 272 270 272 274 274 275 275 275 275 275 276 276 275 274 273 272 271 268 266 264 263 262 261 259 258 257 257 258 257 256 256 255 254 253 254 255 255
256 257 263 268 270 271 274 279 283 285 287 288 288 286 283 281 280 278 276 275 273 272 268 265 264 262 261 260 259 258 256 257 257 256 256 256 254 254 254 254 255 257
259 259 263 265 270 280 290 300 307 308 308 306 301 296 291 288 285 282 280 278 276 275 273 269 266 264 262 260 259 259 258 258 258 257 257 256 255 255 255 255 256 257
257 257 255 247 250 281 308 322 329 327 323 320 314 307 301 294 289 284 282 280 278 277 277 275 272 270 268 264 261 261 260 259 258 258 258 258 257 256 256 257 257 257
263 260 248 231 233 256 283 306 319 323 323 320 316 311 306 300 294 287 283 282 280 279 277 276 274 272 270 268 265 263 261 260 258 259 259 259 259 259 258 258 257 257
274 267 254 243 244 252 270 289 300 308 312 312 310 307 304 300 296 291 286 283 282 281 279 276 274 271 269 268 267 265 263 261 259 258 258 259 260 260 259 258 257 257
282 276 268 262 257 257 263 274 282 290 295 298 299 299 298 295 292 289 286 283 282 282 282 280 276 272 270 267 266 265 264 262 259 258 258 259 259 260 258 258 257 256
283 279 274 270 267 263 263 266 272 278 282 286 289 291 292 290 287 285 283 281 281 282 283 282 280 277 274 271 267 265 263 262 260 258 258 258 258 258 257 256 256 256
280 277 273 270 267 263 260 261 264 269 273 277 280 284 287 287 284 282 281 281 280 280 281 282 281 281 279 276 272 268 265 264 262 261 259 258 258 258 257 256 256 257
278 276 273 272 270 267 265 264 265 268 271 275 279 283 285 285 282 280 280 279 278 278 278 279 281 283 282 280 276 272 268 266 264 263 262 260 260 259 259 259 258 259
278 275 275 275 275 275 274 274 274 275 277 280 282 284 284 282 280 279 278 277 275 274 275 276 280 283 283 282 280 276 272 268 265 264 263 262 261 261 261 261 260 260
280 278 278 278 279 279 279 278 278 278 279 281 282 281 280 279 278 277 276 275 273 272 272 273 277 280 282 283 281 278 274 270 266 264 262 261 261 261 262 262 262 261
284 283 283 283 282 282 282 281 281 280 278 278 278 278 278 278 279 279 278 278 276 274 272 272 274 277 281 282 281 279 276 271 267 265 262 261 260 260 261 261 261 261
282 282 283 285 284 284 286 287 287 286 283 281 280 279 279 280 281 282 283 282 280 277 274 272 272 276 279 280 280 279 277 273 269 265 262 261 259 259 259 259 259 259
288 288 288 289 288 287 288 289 290 289 289 289 287 286 285 285 284 284 285 285 284 281 277 273 272 273 275 276 278 279 278 275 272 268 265 263 261 259 258 257 257 257
297 296 295 294 293 292 291 291 290 289 288 288 288 288 289 290 290 288 286 285 284 283 282 278 275 272 272 273 275 276 276 275 272 270 268 266 265 263 261 260 258 256
297 298 298 297 296 297 297 297 296 294 292 289 287 286 286 287 289 290 289 287 284 283 284 282 279 275 272 272 272 274 276 276 274 272 270 269 269 268 266 264 262 260
291 293 295 296 296 297 297 299 299 299 298 295 291 289 288 287 287 288 289 289 287 284 282 281 280 278 275 273 272 274 275 276 275 274 272 271 271 270 269 266 263 262
285 287 288 290 293 295 295 296 298 298 298 297 295 294 293 293 293 292 292 292 291 289 286 283 281 279 276 273 272 272 273 274 274 274 274 275 274 271 270 267 264 262